METEOR 2-11 DEB

Satellite information

Favourite Embed

Satellite Type and Status

DEBRISIN ORBIT

Key statistics

Satellite METEOR 2-11 DEB at a glance.

Uptime

15137

Days in orbit

Revolutions

≈ 14.0

Per day

Orbit

LEO

Low Earth Orbit

Inclination

82.5

Latest

Satellite identification and parameters

Extended collection of information and parameters for METEOR 2-11 DEB.

Object identification

Identified? True

Debris? True

Object name: METEOR 2-11 DEB

International designator: 1984-072G

Object number (NORAD): 40705

Object ID (CCSDS): 40705

Country: COMMONWEALTH OF INDEPENDENT STATES (CIS)

Current information (Y/N): Y

RCS size: SMALL

Orbital parameters

Period: 103.06 minutes

Inclination: 82.5176 deg

SMA: 7281.494 km

Apoapsis: 925.207 km

Periapsis: 881.512 km

RAAN: 162.0939 deg

Eccentricy: 0.0030004

Argument of periapsis: 229.0129 deg

Mean anomaly: 130.8443 deg

Mean motion: 13.97243211 rev/day

Mean motion (dot): 0.00003552 rev/day2

B* drag term: 0.0025178 1/REarth

Two-line elements (TLE)

Creation date: Dec. 9, 2025, 3:06 p.m.

Reference frame: TEME

Reference center: EARTH

Epoch: Dec. 9, 2025, 5:15 a.m. UTC

TLE line 0: 0 METEOR 2-11 DEB

TLE line 1: 1 40705U 84072G 25343.21932112 .00003552 00000-0 25178-2 0 9995

TLE line 2: 2 40705 82.5176 162.0939 0030004 229.0129 130.8443 13.97243211560804

Live tracking on map

Real-time ground track for satellite METEOR 2-11 DEB.

In-orbit conjunctions

A list of the most updated potential collisions computed for object METEOR 2-11 DEB.

Target Orbit TCA Probability of collision Miss distance Type
FENGYUN 1C DEB SSO 2024-11-17 13:08:43 0.0001335094 711.0 (m) DEBRIS
FENGYUN 1C DEB SSO 2024-11-16 06:08:56 0.0002882137 537.0 (m) DEBRIS
FENGYUN 1C DEB SSO 2024-11-10 01:53:28 0.0001497135 253.0 (m) DEBRIS

Associated space launch

Second generation soviet meteorological satellite

METEOR 2-11 DEB was lifted into orbit during the mission ‘Tsiklon-3 | Meteor-2 11’, on board a Tsiklon-3 space rocket.

The launch took place on July 5, 1984, 3:35 a.m. from 32/2.

For more information about the launch, click the button.

Launch to space Tsiklon-3 | Meteor-2 11
Tsiklon-3 | Meteor-2 11

Agency: N/A

Status: Launch Successful

Launch date: July 5, 1984, 3:35 a.m. UTC

Rocket: Tsiklon-3

Launch pad: 32/2

Location: Plesetsk Cosmodrome, Russian Federation

...

Latest news about this satellite

There are no fresh news available about this satellite. Check back as we update our databases every day.


Newsletter sign-up

Weekly statistics, charts and insights to help you stay on top of the space industry.